Alamosa, CO

5:15 AM MDT on May 26, 2017 (GMT -0600)
San Luis Valley Regional / Bergman Field

Weather History for KALS - January, 2012

Change the Weather History Date:

Saturday, January 21, 2012

  Actual Average Record
Temperature  
Mean Temperature 27 °F 16 °F  
Max Temperature 48 °F 35 °F 60 °F (1950)
Min Temperature 6 °F -2 °F -34 °F (1984)
Degree Days  
Heating Degree Days 38 49  
Month to date heating degree days 925 1029  
Since 1 July heating degree days 4515 4666  
Cooling Degree Days 0 0  
Month to date cooling degree days 0 0  
Year to date cooling degree days 0 0  
Moisture  
Dew Point 21 °F    
Average Humidity 62    
Maximum Humidity 92    
Minimum Humidity 31    
Precipitation  
Precipitation 0.06 in 0.01 in 0.35 in (2010)
Month to date precipitation 0.06 0.17  
Year to date precipitation 0.06 0.17  
Snow  
Snow 0.10 in 0.10 in 3.50 in (2010)
Month to date snowfall 0.1 2.5  
Since 1 July snowfall 12.5 12.8  
Snow Depth 0.00 in    
Sea Level Pressure  
Sea Level Pressure 29.78 in    
Wind  
Wind Speed 12 mph (SSW)    
Max Wind Speed 36 mph    
Max Gust Speed 49 mph    
Visibility 8 miles    
Events Snow    
T = Trace of Precipitation, MM = Missing Value Source: NWS Daily Summary

Daily Weather History Graph

Daily Weather History Graph

Search for Another Location

Airport or City:

Trip Planner

Search our weather history database for the weather conditions in past years. The results will help you decide how hot, cold, wet, or windy it might be!

Date:

Astronomy

Jan. 21, 2012 Rise Set
Actual Time 7:14 AM MST 5:15 PM MST
Civil Twilight 6:46 AM MST 5:43 PM MST
Nautical Twilight 6:14 AM MST 6:15 PM MST
Astronomical Twilight 5:43 AM MST 6:46 PM MST
Moon 5:46 AM MST (1/21) 3:54 PM MST (1/21)
Length of Visible Light 10h 57m
Length of Day
10h 00m
Waning Crescent, 3% of the Moon is Illuminated
Jan 21
Waning Crescent
Jan 23
New
Jan 30
First Quarter
Feb 7
Full
Feb 14
Last Quarter

Hourly Weather History & Observations

Time (MST) Temp. Windchill Dew Point Humidity Pressure Visibility Wind Dir Wind Speed Gust Speed Precip Events Conditions
12:52 AM 16.0 °F 8.8 °F 10.9 °F 81% 30.06 in 10.0 mi ESE 4.6 mph - N/A   Clear
1:52 AM 14.0 °F - 9.0 °F 80% 30.05 in 10.0 mi Calm Calm - N/A   Clear
2:52 AM 14.0 °F 8.2 °F 10.0 °F 84% 30.04 in 10.0 mi North 3.5 mph - N/A   Clear
3:52 AM 16.0 °F 10.4 °F 10.9 °F 81% 29.99 in 10.0 mi North 3.5 mph - N/A   Clear
4:52 AM 10.0 °F - 6.1 °F 84% 30.06 in 10.0 mi Calm Calm - N/A   Clear
5:52 AM 10.9 °F - 8.1 °F 88% 30.12 in 10.0 mi Calm Calm - N/A   Clear
6:52 AM 8.1 °F - 3.0 °F 80% 30.14 in 10.0 mi Calm Calm - N/A   Clear
7:52 AM 12.9 °F - 8.1 °F 81% 30.11 in 10.0 mi Calm Calm - N/A   Clear
8:52 AM 18.0 °F - 12.0 °F 78% 30.09 in 10.0 mi Calm Calm - N/A   Clear
9:52 AM 30.0 °F - 18.0 °F 61% 30.02 in 10.0 mi Calm Calm - N/A   Partly Cloudy
10:52 AM 34.0 °F 29.8 °F 16.0 °F 48% 29.96 in 10.0 mi WNW 4.6 mph - N/A   Clear
11:52 AM 43.0 °F 35.1 °F 18.0 °F 37% 29.84 in 10.0 mi South 17.3 mph 23.0 mph N/A   Partly Cloudy
12:10 PM 44.6 °F 37.4 °F 17.6 °F 34% 29.81 in 10.0 mi South 16.1 mph 24.2 mph N/A   Partly Cloudy
12:52 PM 46.0 °F 37.8 °F 18.0 °F 33% 29.77 in 3.0 mi South 23.0 mph 29.9 mph N/A   Haze
1:01 PM 46.4 °F 38.5 °F 19.4 °F 34% 29.76 in 2.0 mi South 21.9 mph 33.4 mph N/A   Haze
1:22 PM 44.6 °F 35.5 °F 21.2 °F 39% 29.75 in 7.0 mi South 25.3 mph 31.1 mph N/A   Overcast
1:52 PM 46.9 °F - 24.1 °F 41% 29.72 in 9.0 mi South 18.4 mph 28.8 mph N/A   Scattered Clouds
2:52 PM 46.0 °F 37.8 °F 24.1 °F 42% 29.69 in 9.0 mi SSE 23.0 mph 31.1 mph N/A   Overcast
3:52 PM 44.1 °F 34.8 °F 26.1 °F 49% 29.66 in 8.0 mi South 25.3 mph 32.2 mph N/A   Overcast
4:52 PM 42.1 °F 33.6 °F 26.1 °F 53% 29.68 in 10.0 mi South 18.4 mph 26.5 mph N/A   Mostly Cloudy
5:52 PM 39.0 °F 26.8 °F 28.0 °F 65% 29.62 in 10.0 mi SSW 32.2 mph 41.4 mph N/A   Clear
6:52 PM 37.0 °F 24.9 °F 28.9 °F 73% 29.62 in 10.0 mi SSW 27.6 mph 38.0 mph N/A   Clear
7:52 PM 36.0 °F 26.0 °F 30.0 °F 79% 29.61 in 10.0 mi South 17.3 mph - 0.00 in   Partly Cloudy
8:52 PM 35.1 °F 22.7 °F 30.9 °F 85% 29.60 in 2.5 mi SW 25.3 mph 39.1 mph 0.00 in Snow Light Snow
8:55 PM 33.8 °F 23.2 °F 30.2 °F 87% 29.57 in 1.8 mi WSW 17.3 mph 39.1 mph 0.00 in Snow Light Snow
9:05 PM 33.8 °F 24.8 °F 30.2 °F 87% 29.57 in 0.8 mi SW 12.7 mph 21.9 mph 0.03 in Snow Light Snow
9:09 PM 33.8 °F 25.8 °F 30.2 °F 87% 29.56 in 1.0 mi SW 10.4 mph - 0.05 in Snow Light Snow
9:14 PM 33.8 °F 25.3 °F 32.0 °F 93% 29.55 in 3.0 mi SSW 11.5 mph - 0.06 in Snow Light Snow
9:33 PM 33.8 °F 22.2 °F 30.2 °F 87% 29.54 in 10.0 mi SSW 20.7 mph 29.9 mph 0.06 in   Scattered Clouds
9:52 PM 32.0 °F 21.6 °F 28.9 °F 88% 29.53 in 10.0 mi SW 15.0 mph 26.5 mph 0.06 in   Clear
10:52 PM 30.0 °F 17.9 °F 27.0 °F 88% 29.50 in 10.0 mi WSW 18.4 mph 26.5 mph 0.00 in   Clear
11:52 PM 28.0 °F 17.0 °F 25.0 °F 88% 29.45 in 10.0 mi South 13.8 mph - N/A   Clear